Index of /20260412/WXO-DD/model_gdps/15km/00/021
Name Last modified Size Description
Parent Directory -
20260412T00Z_MSC_GDPS_AbsoluteVorticity_IsbL-0200_LatLon0.15_PT021H.grib2 2026-04-12 04:16 1.2M
20260412T00Z_MSC_GDPS_AbsoluteVorticity_IsbL-0250_LatLon0.15_PT021H.grib2 2026-04-12 04:16 1.3M
20260412T00Z_MSC_GDPS_AbsoluteVorticity_IsbL-0500_LatLon0.15_PT021H.grib2 2026-04-12 04:16 1.2M
20260412T00Z_MSC_GDPS_AbsoluteVorticity_IsbL-0700_LatLon0.15_PT021H.grib2 2026-04-12 04:16 1.3M
20260412T00Z_MSC_GDPS_AbsoluteVorticity_IsbL-0850_LatLon0.15_PT021H.grib2 2026-04-12 04:16 1.6M
20260412T00Z_MSC_GDPS_AirTemp_AGL-120m_LatLon0.15_PT021H.grib2 2026-04-12 04:16 907K
20260412T00Z_MSC_GDPS_AirTemp_AGL-2m_LatLon0.15_PT021H.grib2 2026-04-12 04:16 1.0M
20260412T00Z_MSC_GDPS_AirTemp_AGL-40m_LatLon0.15_PT021H.grib2 2026-04-12 04:16 933K
20260412T00Z_MSC_GDPS_AirTemp_AGL-80m_LatLon0.15_PT021H.grib2 2026-04-12 04:16 920K
20260412T00Z_MSC_GDPS_AirTemp_IsbL-0001_LatLon0.15_PT021H.grib2 2026-04-12 04:16 645K
20260412T00Z_MSC_GDPS_AirTemp_IsbL-0005_LatLon0.15_PT021H.grib2 2026-04-12 04:16 683K
20260412T00Z_MSC_GDPS_AirTemp_IsbL-0010_LatLon0.15_PT021H.grib2 2026-04-12 04:16 760K
20260412T00Z_MSC_GDPS_AirTemp_IsbL-0020_LatLon0.15_PT021H.grib2 2026-04-12 04:16 707K
20260412T00Z_MSC_GDPS_AirTemp_IsbL-0030_LatLon0.15_PT021H.grib2 2026-04-12 04:16 756K
20260412T00Z_MSC_GDPS_AirTemp_IsbL-0050_LatLon0.15_PT021H.grib2 2026-04-12 04:16 818K
20260412T00Z_MSC_GDPS_AirTemp_IsbL-0100_LatLon0.15_PT021H.grib2 2026-04-12 04:16 952K
20260412T00Z_MSC_GDPS_AirTemp_IsbL-0150_LatLon0.15_PT021H.grib2 2026-04-12 04:16 970K
20260412T00Z_MSC_GDPS_AirTemp_IsbL-0175_LatLon0.15_PT021H.grib2 2026-04-12 04:16 963K
20260412T00Z_MSC_GDPS_AirTemp_IsbL-0200_LatLon0.15_PT021H.grib2 2026-04-12 04:16 972K
20260412T00Z_MSC_GDPS_AirTemp_IsbL-0225_LatLon0.15_PT021H.grib2 2026-04-12 04:16 1.0M
20260412T00Z_MSC_GDPS_AirTemp_IsbL-0250_LatLon0.15_PT021H.grib2 2026-04-12 04:16 1.0M
20260412T00Z_MSC_GDPS_AirTemp_IsbL-0275_LatLon0.15_PT021H.grib2 2026-04-12 04:16 1.0M
20260412T00Z_MSC_GDPS_AirTemp_IsbL-0300_LatLon0.15_PT021H.grib2 2026-04-12 04:16 956K
20260412T00Z_MSC_GDPS_AirTemp_IsbL-0350_LatLon0.15_PT021H.grib2 2026-04-12 04:16 934K
20260412T00Z_MSC_GDPS_AirTemp_IsbL-0400_LatLon0.15_PT021H.grib2 2026-04-12 04:16 945K
20260412T00Z_MSC_GDPS_AirTemp_IsbL-0450_LatLon0.15_PT021H.grib2 2026-04-12 04:16 966K
20260412T00Z_MSC_GDPS_AirTemp_IsbL-0500_LatLon0.15_PT021H.grib2 2026-04-12 04:16 1.0M
20260412T00Z_MSC_GDPS_AirTemp_IsbL-0550_LatLon0.15_PT021H.grib2 2026-04-12 04:16 805K
20260412T00Z_MSC_GDPS_AirTemp_IsbL-0600_LatLon0.15_PT021H.grib2 2026-04-12 04:16 896K
20260412T00Z_MSC_GDPS_AirTemp_IsbL-0650_LatLon0.15_PT021H.grib2 2026-04-12 04:16 921K
20260412T00Z_MSC_GDPS_AirTemp_IsbL-0700_LatLon0.15_PT021H.grib2 2026-04-12 04:16 953K
20260412T00Z_MSC_GDPS_AirTemp_IsbL-0750_LatLon0.15_PT021H.grib2 2026-04-12 04:16 1.0M
20260412T00Z_MSC_GDPS_AirTemp_IsbL-0800_LatLon0.15_PT021H.grib2 2026-04-12 04:16 1.1M
20260412T00Z_MSC_GDPS_AirTemp_IsbL-0850_LatLon0.15_PT021H.grib2 2026-04-12 04:16 1.1M
20260412T00Z_MSC_GDPS_AirTemp_IsbL-0875_LatLon0.15_PT021H.grib2 2026-04-12 04:16 1.1M
20260412T00Z_MSC_GDPS_AirTemp_IsbL-0900_LatLon0.15_PT021H.grib2 2026-04-12 04:16 1.1M
20260412T00Z_MSC_GDPS_AirTemp_IsbL-0925_LatLon0.15_PT021H.grib2 2026-04-12 04:16 1.1M
20260412T00Z_MSC_GDPS_AirTemp_IsbL-0950_LatLon0.15_PT021H.grib2 2026-04-12 04:16 1.1M
20260412T00Z_MSC_GDPS_AirTemp_IsbL-0970_LatLon0.15_PT021H.grib2 2026-04-12 04:16 1.1M
20260412T00Z_MSC_GDPS_AirTemp_IsbL-0985_LatLon0.15_PT021H.grib2 2026-04-12 04:16 1.1M
20260412T00Z_MSC_GDPS_AirTemp_IsbL-1000_LatLon0.15_PT021H.grib2 2026-04-12 04:16 1.1M
20260412T00Z_MSC_GDPS_AirTemp_IsbL-1015_LatLon0.15_PT021H.grib2 2026-04-12 04:16 1.1M
20260412T00Z_MSC_GDPS_Albedo_Sfc_LatLon0.15_PT021H.grib2 2026-04-12 04:16 246K
20260412T00Z_MSC_GDPS_CAPE_Sfc_LatLon0.15_PT021H.grib2 2026-04-12 04:16 3.9M
20260412T00Z_MSC_GDPS_CIN_Sfc_LatLon0.15_PT021H.grib2 2026-04-12 04:16 2.9M
20260412T00Z_MSC_GDPS_CloudWater_EAtm_LatLon0.15_PT021H.grib2 2026-04-12 04:16 525K
20260412T00Z_MSC_GDPS_ConvectivePrecip-Accum_Sfc_LatLon0.15_PT021H.grib2 2026-04-12 04:16 2.1M
20260412T00Z_MSC_GDPS_DewPointDepression_AGL-2m_LatLon0.15_PT021H.grib2 2026-04-12 04:16 746K
20260412T00Z_MSC_GDPS_DewPointDepression_IsbL-0010_LatLon0.15_PT021H.grib2 2026-04-12 04:16 965
20260412T00Z_MSC_GDPS_DewPointDepression_IsbL-0020_LatLon0.15_PT021H.grib2 2026-04-12 04:16 48K
20260412T00Z_MSC_GDPS_DewPointDepression_IsbL-0030_LatLon0.15_PT021H.grib2 2026-04-12 04:16 63K
20260412T00Z_MSC_GDPS_DewPointDepression_IsbL-0050_LatLon0.15_PT021H.grib2 2026-04-12 04:16 349K
20260412T00Z_MSC_GDPS_DewPointDepression_IsbL-0100_LatLon0.15_PT021H.grib2 2026-04-12 04:16 371K
20260412T00Z_MSC_GDPS_DewPointDepression_IsbL-0150_LatLon0.15_PT021H.grib2 2026-04-12 04:16 445K
20260412T00Z_MSC_GDPS_DewPointDepression_IsbL-0175_LatLon0.15_PT021H.grib2 2026-04-12 04:16 512K
20260412T00Z_MSC_GDPS_DewPointDepression_IsbL-0200_LatLon0.15_PT021H.grib2 2026-04-12 04:16 624K
20260412T00Z_MSC_GDPS_DewPointDepression_IsbL-0225_LatLon0.15_PT021H.grib2 2026-04-12 04:16 756K
20260412T00Z_MSC_GDPS_DewPointDepression_IsbL-0250_LatLon0.15_PT021H.grib2 2026-04-12 04:16 868K
20260412T00Z_MSC_GDPS_DewPointDepression_IsbL-0275_LatLon0.15_PT021H.grib2 2026-04-12 04:16 897K
20260412T00Z_MSC_GDPS_DewPointDepression_IsbL-0300_LatLon0.15_PT021H.grib2 2026-04-12 04:16 940K
20260412T00Z_MSC_GDPS_DewPointDepression_IsbL-0350_LatLon0.15_PT021H.grib2 2026-04-12 04:16 959K
20260412T00Z_MSC_GDPS_DewPointDepression_IsbL-0400_LatLon0.15_PT021H.grib2 2026-04-12 04:16 1.0M
20260412T00Z_MSC_GDPS_DewPointDepression_IsbL-0450_LatLon0.15_PT021H.grib2 2026-04-12 04:16 1.0M
20260412T00Z_MSC_GDPS_DewPointDepression_IsbL-0500_LatLon0.15_PT021H.grib2 2026-04-12 04:16 1.0M
20260412T00Z_MSC_GDPS_DewPointDepression_IsbL-0550_LatLon0.15_PT021H.grib2 2026-04-12 04:16 1.0M
20260412T00Z_MSC_GDPS_DewPointDepression_IsbL-0600_LatLon0.15_PT021H.grib2 2026-04-12 04:16 1.0M
20260412T00Z_MSC_GDPS_DewPointDepression_IsbL-0650_LatLon0.15_PT021H.grib2 2026-04-12 04:16 1.0M
20260412T00Z_MSC_GDPS_DewPointDepression_IsbL-0700_LatLon0.15_PT021H.grib2 2026-04-12 04:16 1.1M
20260412T00Z_MSC_GDPS_DewPointDepression_IsbL-0750_LatLon0.15_PT021H.grib2 2026-04-12 04:16 1.1M
20260412T00Z_MSC_GDPS_DewPointDepression_IsbL-0800_LatLon0.15_PT021H.grib2 2026-04-12 04:16 1.2M
20260412T00Z_MSC_GDPS_DewPointDepression_IsbL-0850_LatLon0.15_PT021H.grib2 2026-04-12 04:16 1.2M
20260412T00Z_MSC_GDPS_DewPointDepression_IsbL-0875_LatLon0.15_PT021H.grib2 2026-04-12 04:16 1.1M
20260412T00Z_MSC_GDPS_DewPointDepression_IsbL-0900_LatLon0.15_PT021H.grib2 2026-04-12 04:16 1.1M
20260412T00Z_MSC_GDPS_DewPointDepression_IsbL-0925_LatLon0.15_PT021H.grib2 2026-04-12 04:16 1.0M
20260412T00Z_MSC_GDPS_DewPointDepression_IsbL-0950_LatLon0.15_PT021H.grib2 2026-04-12 04:16 1.0M
20260412T00Z_MSC_GDPS_DewPointDepression_IsbL-0970_LatLon0.15_PT021H.grib2 2026-04-12 04:16 1.0M
20260412T00Z_MSC_GDPS_DewPointDepression_IsbL-0985_LatLon0.15_PT021H.grib2 2026-04-12 04:16 1.0M
20260412T00Z_MSC_GDPS_DewPointDepression_IsbL-1000_LatLon0.15_PT021H.grib2 2026-04-12 04:16 970K
20260412T00Z_MSC_GDPS_DewPointDepression_IsbL-1015_LatLon0.15_PT021H.grib2 2026-04-12 04:16 907K
20260412T00Z_MSC_GDPS_DewPoint_AGL-2m_LatLon0.15_PT021H.grib2 2026-04-12 04:16 608K
20260412T00Z_MSC_GDPS_DownwardLongwaveRadiationFlux-Accum_Sfc_LatLon0.15_PT021H.grib2 2026-04-12 04:16 899K
20260412T00Z_MSC_GDPS_DownwardShortwaveRadiationFlux-Accum_NTAtm_LatLon0.15_PT021H.grib2 2026-04-12 04:16 347K
20260412T00Z_MSC_GDPS_DownwardShortwaveRadiationFlux-Accum_Sfc_LatLon0.15_PT021H.grib2 2026-04-12 04:16 1.1M
20260412T00Z_MSC_GDPS_FreezingRain-Accum1h_Sfc_LatLon0.15_PT021H.grib2 2026-04-12 04:16 24K
20260412T00Z_MSC_GDPS_FreezingRain-Accum3h_Sfc_LatLon0.15_PT021H.grib2 2026-04-12 04:16 18K
20260412T00Z_MSC_GDPS_FreezingRain-Accum_Sfc_LatLon0.15_PT021H.grib2 2026-04-12 04:16 118K
20260412T00Z_MSC_GDPS_GeopotentialHeight_IsbL-0001_LatLon0.15_PT021H.grib2 2026-04-12 04:16 529K
20260412T00Z_MSC_GDPS_GeopotentialHeight_IsbL-0005_LatLon0.15_PT021H.grib2 2026-04-12 04:16 443K
20260412T00Z_MSC_GDPS_GeopotentialHeight_IsbL-0010_LatLon0.15_PT021H.grib2 2026-04-12 04:16 580K
20260412T00Z_MSC_GDPS_GeopotentialHeight_IsbL-0020_LatLon0.15_PT021H.grib2 2026-04-12 04:16 581K
20260412T00Z_MSC_GDPS_GeopotentialHeight_IsbL-0030_LatLon0.15_PT021H.grib2 2026-04-12 04:16 585K
20260412T00Z_MSC_GDPS_GeopotentialHeight_IsbL-0050_LatLon0.15_PT021H.grib2 2026-04-12 04:16 514K
20260412T00Z_MSC_GDPS_GeopotentialHeight_IsbL-0100_LatLon0.15_PT021H.grib2 2026-04-12 04:16 619K
20260412T00Z_MSC_GDPS_GeopotentialHeight_IsbL-0150_LatLon0.15_PT021H.grib2 2026-04-12 04:16 637K
20260412T00Z_MSC_GDPS_GeopotentialHeight_IsbL-0175_LatLon0.15_PT021H.grib2 2026-04-12 04:16 640K
20260412T00Z_MSC_GDPS_GeopotentialHeight_IsbL-0200_LatLon0.15_PT021H.grib2 2026-04-12 04:16 643K
20260412T00Z_MSC_GDPS_GeopotentialHeight_IsbL-0225_LatLon0.15_PT021H.grib2 2026-04-12 04:16 645K
20260412T00Z_MSC_GDPS_GeopotentialHeight_IsbL-0250_LatLon0.15_PT021H.grib2 2026-04-12 04:16 648K
20260412T00Z_MSC_GDPS_GeopotentialHeight_IsbL-0275_LatLon0.15_PT021H.grib2 2026-04-12 04:16 645K
20260412T00Z_MSC_GDPS_GeopotentialHeight_IsbL-0300_LatLon0.15_PT021H.grib2 2026-04-12 04:16 636K
20260412T00Z_MSC_GDPS_GeopotentialHeight_IsbL-0350_LatLon0.15_PT021H.grib2 2026-04-12 04:16 631K
20260412T00Z_MSC_GDPS_GeopotentialHeight_IsbL-0400_LatLon0.15_PT021H.grib2 2026-04-12 04:16 622K
20260412T00Z_MSC_GDPS_GeopotentialHeight_IsbL-0450_LatLon0.15_PT021H.grib2 2026-04-12 04:16 542K
20260412T00Z_MSC_GDPS_GeopotentialHeight_IsbL-0500_LatLon0.15_PT021H.grib2 2026-04-12 04:16 532K
20260412T00Z_MSC_GDPS_GeopotentialHeight_IsbL-0550_LatLon0.15_PT021H.grib2 2026-04-12 04:16 525K
20260412T00Z_MSC_GDPS_GeopotentialHeight_IsbL-0600_LatLon0.15_PT021H.grib2 2026-04-12 04:16 685K
20260412T00Z_MSC_GDPS_GeopotentialHeight_IsbL-0650_LatLon0.15_PT021H.grib2 2026-04-12 04:16 686K
20260412T00Z_MSC_GDPS_GeopotentialHeight_IsbL-0700_LatLon0.15_PT021H.grib2 2026-04-12 04:16 682K
20260412T00Z_MSC_GDPS_GeopotentialHeight_IsbL-0750_LatLon0.15_PT021H.grib2 2026-04-12 04:16 692K
20260412T00Z_MSC_GDPS_GeopotentialHeight_IsbL-0800_LatLon0.15_PT021H.grib2 2026-04-12 04:16 701K
20260412T00Z_MSC_GDPS_GeopotentialHeight_IsbL-0850_LatLon0.15_PT021H.grib2 2026-04-12 04:16 712K
20260412T00Z_MSC_GDPS_GeopotentialHeight_IsbL-0875_LatLon0.15_PT021H.grib2 2026-04-12 04:16 718K
20260412T00Z_MSC_GDPS_GeopotentialHeight_IsbL-0900_LatLon0.15_PT021H.grib2 2026-04-12 04:16 723K
20260412T00Z_MSC_GDPS_GeopotentialHeight_IsbL-0925_LatLon0.15_PT021H.grib2 2026-04-12 04:16 731K
20260412T00Z_MSC_GDPS_GeopotentialHeight_IsbL-0950_LatLon0.15_PT021H.grib2 2026-04-12 04:16 739K
20260412T00Z_MSC_GDPS_GeopotentialHeight_IsbL-0970_LatLon0.15_PT021H.grib2 2026-04-12 04:16 749K
20260412T00Z_MSC_GDPS_GeopotentialHeight_IsbL-0985_LatLon0.15_PT021H.grib2 2026-04-12 04:16 764K
20260412T00Z_MSC_GDPS_GeopotentialHeight_IsbL-1000_LatLon0.15_PT021H.grib2 2026-04-12 04:16 784K
20260412T00Z_MSC_GDPS_GeopotentialHeight_IsbL-1015_LatLon0.15_PT021H.grib2 2026-04-12 04:16 806K
20260412T00Z_MSC_GDPS_Humidex_Sfc_LatLon0.15_PT021H.grib2 2026-04-12 04:16 5.3M
20260412T00Z_MSC_GDPS_IcePellets-Accum1h_Sfc_LatLon0.15_PT021H.grib2 2026-04-12 04:16 4.7K
20260412T00Z_MSC_GDPS_IcePellets-Accum3h_Sfc_LatLon0.15_PT021H.grib2 2026-04-12 04:16 7.1K
20260412T00Z_MSC_GDPS_IcePellets-Accum_Sfc_LatLon0.15_PT021H.grib2 2026-04-12 04:16 34K
20260412T00Z_MSC_GDPS_KIndex_Sfc_LatLon0.15_PT021H.grib2 2026-04-12 04:16 6.5M
20260412T00Z_MSC_GDPS_LatentHeatNetFlux_Sfc_LatLon0.15_PT021H.grib2 2026-04-12 04:16 491K
20260412T00Z_MSC_GDPS_LiftedIndex-MU-VT_IsbL-0500_LatLon0.15_PT021H.grib2 2026-04-12 04:16 5.4M
20260412T00Z_MSC_GDPS_NetLongwaveRadiationFlux-Accum_Sfc_LatLon0.15_PT021H.grib2 2026-04-12 04:16 1.1M
20260412T00Z_MSC_GDPS_NetShortwaveRadiationFlux-Accum_Sfc_LatLon0.15_PT021H.grib2 2026-04-12 04:16 1.1M
20260412T00Z_MSC_GDPS_O3MixingRatio_LatLon0.15_PT021H.grib2 2026-04-12 05:04 2.1M
20260412T00Z_MSC_GDPS_O3_EAtm_LatLon0.15_PT021H.grib2 2026-04-12 05:04 2.1M
20260412T00Z_MSC_GDPS_PlanetaryBoundaryLayerHeight_Sfc_LatLon0.15_PT021H.grib2 2026-04-12 04:16 2.4M
20260412T00Z_MSC_GDPS_Precip-Accum1h_Sfc_LatLon0.15_PT021H.grib2 2026-04-12 04:16 3.2M
20260412T00Z_MSC_GDPS_Precip-Accum3h_Sfc_LatLon0.15_PT021H.grib2 2026-04-12 04:16 3.4M
20260412T00Z_MSC_GDPS_Precip-Accum_Sfc_LatLon0.15_PT021H.grib2 2026-04-12 04:16 4.2M
20260412T00Z_MSC_GDPS_PrecipRate_Sfc_LatLon0.15_PT021H.grib2 2026-04-12 04:16 3.0M
20260412T00Z_MSC_GDPS_PrecipType-Instant_Sfc_LatLon0.15_PT021H.grib2 2026-04-12 04:16 1.5M
20260412T00Z_MSC_GDPS_Pressure_MSL_LatLon0.15_PT021H.grib2 2026-04-12 04:16 822K
20260412T00Z_MSC_GDPS_Pressure_PVU-1.5_LatLon0.15_PT021H.grib2 2026-04-12 04:16 5.8M
20260412T00Z_MSC_GDPS_Pressure_PVU-1_LatLon0.15_PT021H.grib2 2026-04-12 04:16 6.0M
20260412T00Z_MSC_GDPS_Pressure_PVU-2_LatLon0.15_PT021H.grib2 2026-04-12 04:16 5.6M
20260412T00Z_MSC_GDPS_Pressure_Sfc_LatLon0.15_PT021H.grib2 2026-04-12 04:16 1.1M
20260412T00Z_MSC_GDPS_RadiativeTemp_Sfc_LatLon0.15_PT021H.grib2 2026-04-12 04:16 655K
20260412T00Z_MSC_GDPS_Rain-Accum1h_Sfc_LatLon0.15_PT021H.grib2 2026-04-12 04:16 1.6M
20260412T00Z_MSC_GDPS_Rain-Accum3h_Sfc_LatLon0.15_PT021H.grib2 2026-04-12 04:16 1.8M
20260412T00Z_MSC_GDPS_Rain-Accum_Sfc_LatLon0.15_PT021H.grib2 2026-04-12 04:16 3.0M
20260412T00Z_MSC_GDPS_RelativeHumidity_AGL-2m_LatLon0.15_PT021H.grib2 2026-04-12 04:16 1.0M
20260412T00Z_MSC_GDPS_RelativeHumidity_IsbL-0010_LatLon0.15_PT021H.grib2 2026-04-12 04:16 249K
20260412T00Z_MSC_GDPS_RelativeHumidity_IsbL-0020_LatLon0.15_PT021H.grib2 2026-04-12 04:16 399K
20260412T00Z_MSC_GDPS_RelativeHumidity_IsbL-0030_LatLon0.15_PT021H.grib2 2026-04-12 04:16 533K
20260412T00Z_MSC_GDPS_RelativeHumidity_IsbL-0050_LatLon0.15_PT021H.grib2 2026-04-12 04:16 326K
20260412T00Z_MSC_GDPS_RelativeHumidity_IsbL-0100_LatLon0.15_PT021H.grib2 2026-04-12 04:16 500K
20260412T00Z_MSC_GDPS_RelativeHumidity_IsbL-0150_LatLon0.15_PT021H.grib2 2026-04-12 04:16 651K
20260412T00Z_MSC_GDPS_RelativeHumidity_IsbL-0175_LatLon0.15_PT021H.grib2 2026-04-12 04:16 757K
20260412T00Z_MSC_GDPS_RelativeHumidity_IsbL-0200_LatLon0.15_PT021H.grib2 2026-04-12 04:16 673K
20260412T00Z_MSC_GDPS_RelativeHumidity_IsbL-0225_LatLon0.15_PT021H.grib2 2026-04-12 04:16 764K
20260412T00Z_MSC_GDPS_RelativeHumidity_IsbL-0250_LatLon0.15_PT021H.grib2 2026-04-12 04:16 846K
20260412T00Z_MSC_GDPS_RelativeHumidity_IsbL-0275_LatLon0.15_PT021H.grib2 2026-04-12 04:16 875K
20260412T00Z_MSC_GDPS_RelativeHumidity_IsbL-0300_LatLon0.15_PT021H.grib2 2026-04-12 04:16 921K
20260412T00Z_MSC_GDPS_RelativeHumidity_IsbL-0350_LatLon0.15_PT021H.grib2 2026-04-12 04:16 946K
20260412T00Z_MSC_GDPS_RelativeHumidity_IsbL-0400_LatLon0.15_PT021H.grib2 2026-04-12 04:16 970K
20260412T00Z_MSC_GDPS_RelativeHumidity_IsbL-0450_LatLon0.15_PT021H.grib2 2026-04-12 04:16 1.0M
20260412T00Z_MSC_GDPS_RelativeHumidity_IsbL-0500_LatLon0.15_PT021H.grib2 2026-04-12 04:16 1.0M
20260412T00Z_MSC_GDPS_RelativeHumidity_IsbL-0550_LatLon0.15_PT021H.grib2 2026-04-12 04:16 1.0M
20260412T00Z_MSC_GDPS_RelativeHumidity_IsbL-0600_LatLon0.15_PT021H.grib2 2026-04-12 04:16 1.1M
20260412T00Z_MSC_GDPS_RelativeHumidity_IsbL-0650_LatLon0.15_PT021H.grib2 2026-04-12 04:16 1.1M
20260412T00Z_MSC_GDPS_RelativeHumidity_IsbL-0700_LatLon0.15_PT021H.grib2 2026-04-12 04:16 1.1M
20260412T00Z_MSC_GDPS_RelativeHumidity_IsbL-0750_LatLon0.15_PT021H.grib2 2026-04-12 04:16 1.2M
20260412T00Z_MSC_GDPS_RelativeHumidity_IsbL-0800_LatLon0.15_PT021H.grib2 2026-04-12 04:16 1.2M
20260412T00Z_MSC_GDPS_RelativeHumidity_IsbL-0850_LatLon0.15_PT021H.grib2 2026-04-12 04:16 1.3M
20260412T00Z_MSC_GDPS_RelativeHumidity_IsbL-0875_LatLon0.15_PT021H.grib2 2026-04-12 04:16 1.3M
20260412T00Z_MSC_GDPS_RelativeHumidity_IsbL-0900_LatLon0.15_PT021H.grib2 2026-04-12 04:16 1.3M
20260412T00Z_MSC_GDPS_RelativeHumidity_IsbL-0925_LatLon0.15_PT021H.grib2 2026-04-12 04:16 1.2M
20260412T00Z_MSC_GDPS_RelativeHumidity_IsbL-0950_LatLon0.15_PT021H.grib2 2026-04-12 04:16 1.2M
20260412T00Z_MSC_GDPS_RelativeHumidity_IsbL-0970_LatLon0.15_PT021H.grib2 2026-04-12 04:16 1.2M
20260412T00Z_MSC_GDPS_RelativeHumidity_IsbL-0985_LatLon0.15_PT021H.grib2 2026-04-12 04:16 1.1M
20260412T00Z_MSC_GDPS_RelativeHumidity_IsbL-1000_LatLon0.15_PT021H.grib2 2026-04-12 04:16 1.1M
20260412T00Z_MSC_GDPS_RelativeHumidity_IsbL-1015_LatLon0.15_PT021H.grib2 2026-04-12 04:16 1.0M
20260412T00Z_MSC_GDPS_RelativeVorticity_IsbL-0200_LatLon0.15_PT021H.grib2 2026-04-12 04:16 1.2M
20260412T00Z_MSC_GDPS_RelativeVorticity_IsbL-0250_LatLon0.15_PT021H.grib2 2026-04-12 04:16 1.3M
20260412T00Z_MSC_GDPS_RelativeVorticity_IsbL-0500_LatLon0.15_PT021H.grib2 2026-04-12 04:16 1.2M
20260412T00Z_MSC_GDPS_RelativeVorticity_IsbL-0700_LatLon0.15_PT021H.grib2 2026-04-12 04:16 1.3M
20260412T00Z_MSC_GDPS_RelativeVorticity_IsbL-0850_LatLon0.15_PT021H.grib2 2026-04-12 04:16 1.6M
20260412T00Z_MSC_GDPS_Runoff-Accum_Sfc_LatLon0.15_PT021H.grib2 2026-04-12 04:16 92K
20260412T00Z_MSC_GDPS_SensibleHeatNetFlux_Sfc_LatLon0.15_PT021H.grib2 2026-04-12 04:16 593K
20260412T00Z_MSC_GDPS_ShowalterIndex_IsbL-0500_LatLon0.15_PT021H.grib2 2026-04-12 04:16 6.2M
20260412T00Z_MSC_GDPS_Snow-Accum1h_Sfc_LatLon0.15_PT021H.grib2 2026-04-12 04:16 1.0M
20260412T00Z_MSC_GDPS_Snow-Accum3h_Sfc_LatLon0.15_PT021H.grib2 2026-04-12 04:16 913K
20260412T00Z_MSC_GDPS_Snow-Accum_Sfc_LatLon0.15_PT021H.grib2 2026-04-12 04:16 1.7M
20260412T00Z_MSC_GDPS_SnowDensity_Sfc_LatLon0.15_PT021H.grib2 2026-04-12 04:16 264K
20260412T00Z_MSC_GDPS_SnowDepth_Sfc_LatLon0.15_PT021H.grib2 2026-04-12 04:16 1.8M
20260412T00Z_MSC_GDPS_SoilTemp_DBS-0to10cm_LatLon0.15_PT021H.grib2 2026-04-12 04:16 494K
20260412T00Z_MSC_GDPS_SoilTemp_Sfc_LatLon0.15_PT021H.grib2 2026-04-12 04:16 565K
20260412T00Z_MSC_GDPS_SoilVolumetricIceContent_Sfc_LatLon0.15_PT021H.grib2 2026-04-12 04:16 229K
20260412T00Z_MSC_GDPS_SoilVolumetricWaterContent_DBS-0to10cm_LatLon0.15_PT021H.grib2 2026-04-12 04:16 550K
20260412T00Z_MSC_GDPS_SoilVolumetricWaterContent_DBS-0to1cm_LatLon0.15_PT021H.grib2 2026-04-12 04:16 650K
20260412T00Z_MSC_GDPS_SpecificHumidity_AGL-120m_LatLon0.15_PT021H.grib2 2026-04-12 04:16 1.1M
20260412T00Z_MSC_GDPS_SpecificHumidity_AGL-2m_LatLon0.15_PT021H.grib2 2026-04-12 04:16 1.2M
20260412T00Z_MSC_GDPS_SpecificHumidity_AGL-40m_LatLon0.15_PT021H.grib2 2026-04-12 04:16 1.1M
20260412T00Z_MSC_GDPS_SpecificHumidity_AGL-80m_LatLon0.15_PT021H.grib2 2026-04-12 04:16 1.1M
20260412T00Z_MSC_GDPS_SpecificHumidity_IsbL-0001_LatLon0.15_PT021H.grib2 2026-04-12 04:16 1.3M
20260412T00Z_MSC_GDPS_SpecificHumidity_IsbL-0005_LatLon0.15_PT021H.grib2 2026-04-12 04:16 1.2M
20260412T00Z_MSC_GDPS_SpecificHumidity_IsbL-0010_LatLon0.15_PT021H.grib2 2026-04-12 04:16 1.3M
20260412T00Z_MSC_GDPS_SpecificHumidity_IsbL-0020_LatLon0.15_PT021H.grib2 2026-04-12 04:16 1.4M
20260412T00Z_MSC_GDPS_SpecificHumidity_IsbL-0030_LatLon0.15_PT021H.grib2 2026-04-12 04:16 1.4M
20260412T00Z_MSC_GDPS_SpecificHumidity_IsbL-0050_LatLon0.15_PT021H.grib2 2026-04-12 04:16 1.4M
20260412T00Z_MSC_GDPS_SpecificHumidity_IsbL-0100_LatLon0.15_PT021H.grib2 2026-04-12 04:16 1.3M
20260412T00Z_MSC_GDPS_SpecificHumidity_IsbL-0150_LatLon0.15_PT021H.grib2 2026-04-12 04:16 1.3M
20260412T00Z_MSC_GDPS_SpecificHumidity_IsbL-0175_LatLon0.15_PT021H.grib2 2026-04-12 04:16 1.3M
20260412T00Z_MSC_GDPS_SpecificHumidity_IsbL-0200_LatLon0.15_PT021H.grib2 2026-04-12 04:16 1.0M
20260412T00Z_MSC_GDPS_SpecificHumidity_IsbL-0225_LatLon0.15_PT021H.grib2 2026-04-12 04:16 1.2M
20260412T00Z_MSC_GDPS_SpecificHumidity_IsbL-0250_LatLon0.15_PT021H.grib2 2026-04-12 04:16 1.2M
20260412T00Z_MSC_GDPS_SpecificHumidity_IsbL-0275_LatLon0.15_PT021H.grib2 2026-04-12 04:16 1.1M
20260412T00Z_MSC_GDPS_SpecificHumidity_IsbL-0300_LatLon0.15_PT021H.grib2 2026-04-12 04:16 1.2M
20260412T00Z_MSC_GDPS_SpecificHumidity_IsbL-0350_LatLon0.15_PT021H.grib2 2026-04-12 04:16 1.2M
20260412T00Z_MSC_GDPS_SpecificHumidity_IsbL-0400_LatLon0.15_PT021H.grib2 2026-04-12 04:16 1.4M
20260412T00Z_MSC_GDPS_SpecificHumidity_IsbL-0450_LatLon0.15_PT021H.grib2 2026-04-12 04:16 1.3M
20260412T00Z_MSC_GDPS_SpecificHumidity_IsbL-0500_LatLon0.15_PT021H.grib2 2026-04-12 04:16 1.5M
20260412T00Z_MSC_GDPS_SpecificHumidity_IsbL-0550_LatLon0.15_PT021H.grib2 2026-04-12 04:16 1.3M
20260412T00Z_MSC_GDPS_SpecificHumidity_IsbL-0600_LatLon0.15_PT021H.grib2 2026-04-12 04:16 1.4M
20260412T00Z_MSC_GDPS_SpecificHumidity_IsbL-0650_LatLon0.15_PT021H.grib2 2026-04-12 04:16 1.5M
20260412T00Z_MSC_GDPS_SpecificHumidity_IsbL-0700_LatLon0.15_PT021H.grib2 2026-04-12 04:16 1.6M
20260412T00Z_MSC_GDPS_SpecificHumidity_IsbL-0750_LatLon0.15_PT021H.grib2 2026-04-12 04:16 1.7M
20260412T00Z_MSC_GDPS_SpecificHumidity_IsbL-0800_LatLon0.15_PT021H.grib2 2026-04-12 04:16 1.8M
20260412T00Z_MSC_GDPS_SpecificHumidity_IsbL-0850_LatLon0.15_PT021H.grib2 2026-04-12 04:16 1.9M
20260412T00Z_MSC_GDPS_SpecificHumidity_IsbL-0875_LatLon0.15_PT021H.grib2 2026-04-12 04:16 1.9M
20260412T00Z_MSC_GDPS_SpecificHumidity_IsbL-0900_LatLon0.15_PT021H.grib2 2026-04-12 04:16 1.9M
20260412T00Z_MSC_GDPS_SpecificHumidity_IsbL-0925_LatLon0.15_PT021H.grib2 2026-04-12 04:16 1.6M
20260412T00Z_MSC_GDPS_SpecificHumidity_IsbL-0950_LatLon0.15_PT021H.grib2 2026-04-12 04:16 1.5M
20260412T00Z_MSC_GDPS_SpecificHumidity_IsbL-0970_LatLon0.15_PT021H.grib2 2026-04-12 04:16 1.5M
20260412T00Z_MSC_GDPS_SpecificHumidity_IsbL-0985_LatLon0.15_PT021H.grib2 2026-04-12 04:16 1.5M
20260412T00Z_MSC_GDPS_SpecificHumidity_IsbL-1000_LatLon0.15_PT021H.grib2 2026-04-12 04:16 1.5M
20260412T00Z_MSC_GDPS_SpecificHumidity_IsbL-1015_LatLon0.15_PT021H.grib2 2026-04-12 04:16 1.4M
20260412T00Z_MSC_GDPS_SpecificHumidity_Sfc_LatLon0.15_PT021H.grib2 2026-04-12 04:16 644K
20260412T00Z_MSC_GDPS_Thickness_IsbL-0850to0700_LatLon0.15_PT021H.grib2 2026-04-12 04:16 469K
20260412T00Z_MSC_GDPS_Thickness_IsbL-1000to0500_LatLon0.15_PT021H.grib2 2026-04-12 04:16 372K
20260412T00Z_MSC_GDPS_Thickness_IsbL-1000to0850_LatLon0.15_PT021H.grib2 2026-04-12 04:16 485K
20260412T00Z_MSC_GDPS_TotalCloudCover_Sfc_LatLon0.15_PT021H.grib2 2026-04-12 04:16 819K
20260412T00Z_MSC_GDPS_TotalTotalsIndex_Sfc_LatLon0.15_PT021H.grib2 2026-04-12 04:16 6.2M
20260412T00Z_MSC_GDPS_UVIndex-ClearSky_Sfc_LatLon0.15_PT021H.grib2 2026-04-12 05:04 1.0M
20260412T00Z_MSC_GDPS_UVIndex_Sfc_LatLon0.15_PT021H.grib2 2026-04-12 05:04 1.5M
20260412T00Z_MSC_GDPS_UpwardLongwaveRadiationFlux_NTAtm_LatLon0.15_PT021H.grib2 2026-04-12 04:16 816K
20260412T00Z_MSC_GDPS_VerticalVelocity_IsbL-0200_LatLon0.15_PT021H.grib2 2026-04-12 04:16 930K
20260412T00Z_MSC_GDPS_VerticalVelocity_IsbL-0250_LatLon0.15_PT021H.grib2 2026-04-12 04:16 1.1M
20260412T00Z_MSC_GDPS_VerticalVelocity_IsbL-0500_LatLon0.15_PT021H.grib2 2026-04-12 04:16 1.0M
20260412T00Z_MSC_GDPS_VerticalVelocity_IsbL-0600_LatLon0.15_PT021H.grib2 2026-04-12 04:16 1.1M
20260412T00Z_MSC_GDPS_VerticalVelocity_IsbL-0700_LatLon0.15_PT021H.grib2 2026-04-12 04:16 1.1M
20260412T00Z_MSC_GDPS_VerticalVelocity_IsbL-0850_LatLon0.15_PT021H.grib2 2026-04-12 04:16 1.6M
20260412T00Z_MSC_GDPS_WindChill_Sfc_LatLon0.15_PT021H.grib2 2026-04-12 04:16 5.4M
20260412T00Z_MSC_GDPS_WindDir_AGL-10m_LatLon0.15_PT021H.grib2 2026-04-12 04:16 1.3M
20260412T00Z_MSC_GDPS_WindDir_AGL-120m_LatLon0.15_PT021H.grib2 2026-04-12 04:16 1.3M
20260412T00Z_MSC_GDPS_WindDir_AGL-40m_LatLon0.15_PT021H.grib2 2026-04-12 04:16 1.4M
20260412T00Z_MSC_GDPS_WindDir_AGL-80m_LatLon0.15_PT021H.grib2 2026-04-12 04:16 1.4M
20260412T00Z_MSC_GDPS_WindDir_IsbL-0001_LatLon0.15_PT021H.grib2 2026-04-12 04:16 633K
20260412T00Z_MSC_GDPS_WindDir_IsbL-0005_LatLon0.15_PT021H.grib2 2026-04-12 04:16 790K
20260412T00Z_MSC_GDPS_WindDir_IsbL-0010_LatLon0.15_PT021H.grib2 2026-04-12 04:16 880K
20260412T00Z_MSC_GDPS_WindDir_IsbL-0020_LatLon0.15_PT021H.grib2 2026-04-12 04:16 931K
20260412T00Z_MSC_GDPS_WindDir_IsbL-0030_LatLon0.15_PT021H.grib2 2026-04-12 04:16 903K
20260412T00Z_MSC_GDPS_WindDir_IsbL-0050_LatLon0.15_PT021H.grib2 2026-04-12 04:16 954K
20260412T00Z_MSC_GDPS_WindDir_IsbL-0100_LatLon0.15_PT021H.grib2 2026-04-12 04:16 1.0M
20260412T00Z_MSC_GDPS_WindDir_IsbL-0150_LatLon0.15_PT021H.grib2 2026-04-12 04:16 1.0M
20260412T00Z_MSC_GDPS_WindDir_IsbL-0175_LatLon0.15_PT021H.grib2 2026-04-12 04:16 1.0M
20260412T00Z_MSC_GDPS_WindDir_IsbL-0200_LatLon0.15_PT021H.grib2 2026-04-12 04:16 1.1M
20260412T00Z_MSC_GDPS_WindDir_IsbL-0225_LatLon0.15_PT021H.grib2 2026-04-12 04:16 1.1M
20260412T00Z_MSC_GDPS_WindDir_IsbL-0250_LatLon0.15_PT021H.grib2 2026-04-12 04:16 1.1M
20260412T00Z_MSC_GDPS_WindDir_IsbL-0275_LatLon0.15_PT021H.grib2 2026-04-12 04:16 1.2M
20260412T00Z_MSC_GDPS_WindDir_IsbL-0300_LatLon0.15_PT021H.grib2 2026-04-12 04:16 1.2M
20260412T00Z_MSC_GDPS_WindDir_IsbL-0350_LatLon0.15_PT021H.grib2 2026-04-12 04:16 1.2M
20260412T00Z_MSC_GDPS_WindDir_IsbL-0400_LatLon0.15_PT021H.grib2 2026-04-12 04:16 1.3M
20260412T00Z_MSC_GDPS_WindDir_IsbL-0450_LatLon0.15_PT021H.grib2 2026-04-12 04:16 1.3M
20260412T00Z_MSC_GDPS_WindDir_IsbL-0500_LatLon0.15_PT021H.grib2 2026-04-12 04:16 1.3M
20260412T00Z_MSC_GDPS_WindDir_IsbL-0550_LatLon0.15_PT021H.grib2 2026-04-12 04:16 1.4M
20260412T00Z_MSC_GDPS_WindDir_IsbL-0600_LatLon0.15_PT021H.grib2 2026-04-12 04:16 1.4M
20260412T00Z_MSC_GDPS_WindDir_IsbL-0650_LatLon0.15_PT021H.grib2 2026-04-12 04:16 1.5M
20260412T00Z_MSC_GDPS_WindDir_IsbL-0700_LatLon0.15_PT021H.grib2 2026-04-12 04:16 1.6M
20260412T00Z_MSC_GDPS_WindDir_IsbL-0750_LatLon0.15_PT021H.grib2 2026-04-12 04:16 1.7M
20260412T00Z_MSC_GDPS_WindDir_IsbL-0800_LatLon0.15_PT021H.grib2 2026-04-12 04:16 1.8M
20260412T00Z_MSC_GDPS_WindDir_IsbL-0850_LatLon0.15_PT021H.grib2 2026-04-12 04:16 1.9M
20260412T00Z_MSC_GDPS_WindDir_IsbL-0875_LatLon0.15_PT021H.grib2 2026-04-12 04:16 1.9M
20260412T00Z_MSC_GDPS_WindDir_IsbL-0900_LatLon0.15_PT021H.grib2 2026-04-12 04:16 2.0M
20260412T00Z_MSC_GDPS_WindDir_IsbL-0925_LatLon0.15_PT021H.grib2 2026-04-12 04:16 2.0M
20260412T00Z_MSC_GDPS_WindDir_IsbL-0950_LatLon0.15_PT021H.grib2 2026-04-12 04:16 2.0M
20260412T00Z_MSC_GDPS_WindDir_IsbL-0970_LatLon0.15_PT021H.grib2 2026-04-12 04:16 2.0M
20260412T00Z_MSC_GDPS_WindDir_IsbL-0985_LatLon0.15_PT021H.grib2 2026-04-12 04:16 2.0M
20260412T00Z_MSC_GDPS_WindDir_IsbL-1000_LatLon0.15_PT021H.grib2 2026-04-12 04:16 2.1M
20260412T00Z_MSC_GDPS_WindDir_IsbL-1015_LatLon0.15_PT021H.grib2 2026-04-12 04:16 2.0M
20260412T00Z_MSC_GDPS_WindGust-Max_AGL-10m_LatLon0.15_PT021H.grib2 2026-04-12 04:16 2.2M
20260412T00Z_MSC_GDPS_WindGust-Min_AGL-10m_LatLon0.15_PT021H.grib2 2026-04-12 04:16 2.2M
20260412T00Z_MSC_GDPS_WindGust_AGL-10m_LatLon0.15_PT021H.grib2 2026-04-12 04:16 2.2M
20260412T00Z_MSC_GDPS_WindSpeed_AGL-10m_LatLon0.15_PT021H.grib2 2026-04-12 04:16 1.1M
20260412T00Z_MSC_GDPS_WindSpeed_AGL-120m_LatLon0.15_PT021H.grib2 2026-04-12 04:16 1.2M
20260412T00Z_MSC_GDPS_WindSpeed_AGL-40m_LatLon0.15_PT021H.grib2 2026-04-12 04:16 1.2M
20260412T00Z_MSC_GDPS_WindSpeed_AGL-80m_LatLon0.15_PT021H.grib2 2026-04-12 04:16 1.2M
20260412T00Z_MSC_GDPS_WindSpeed_IsbL-0001_LatLon0.15_PT021H.grib2 2026-04-12 04:16 635K
20260412T00Z_MSC_GDPS_WindSpeed_IsbL-0005_LatLon0.15_PT021H.grib2 2026-04-12 04:16 615K
20260412T00Z_MSC_GDPS_WindSpeed_IsbL-0010_LatLon0.15_PT021H.grib2 2026-04-12 04:16 636K
20260412T00Z_MSC_GDPS_WindSpeed_IsbL-0020_LatLon0.15_PT021H.grib2 2026-04-12 04:16 879K
20260412T00Z_MSC_GDPS_WindSpeed_IsbL-0030_LatLon0.15_PT021H.grib2 2026-04-12 04:16 867K
20260412T00Z_MSC_GDPS_WindSpeed_IsbL-0050_LatLon0.15_PT021H.grib2 2026-04-12 04:16 1.0M
20260412T00Z_MSC_GDPS_WindSpeed_IsbL-0100_LatLon0.15_PT021H.grib2 2026-04-12 04:16 1.1M
20260412T00Z_MSC_GDPS_WindSpeed_IsbL-0150_LatLon0.15_PT021H.grib2 2026-04-12 04:16 943K
20260412T00Z_MSC_GDPS_WindSpeed_IsbL-0175_LatLon0.15_PT021H.grib2 2026-04-12 04:16 1.0M
20260412T00Z_MSC_GDPS_WindSpeed_IsbL-0200_LatLon0.15_PT021H.grib2 2026-04-12 04:16 1.1M
20260412T00Z_MSC_GDPS_WindSpeed_IsbL-0225_LatLon0.15_PT021H.grib2 2026-04-12 04:16 1.1M
20260412T00Z_MSC_GDPS_WindSpeed_IsbL-0250_LatLon0.15_PT021H.grib2 2026-04-12 04:16 1.1M
20260412T00Z_MSC_GDPS_WindSpeed_IsbL-0275_LatLon0.15_PT021H.grib2 2026-04-12 04:16 1.1M
20260412T00Z_MSC_GDPS_WindSpeed_IsbL-0300_LatLon0.15_PT021H.grib2 2026-04-12 04:16 1.1M
20260412T00Z_MSC_GDPS_WindSpeed_IsbL-0350_LatLon0.15_PT021H.grib2 2026-04-12 04:16 1.1M
20260412T00Z_MSC_GDPS_WindSpeed_IsbL-0400_LatLon0.15_PT021H.grib2 2026-04-12 04:16 1.1M
20260412T00Z_MSC_GDPS_WindSpeed_IsbL-0450_LatLon0.15_PT021H.grib2 2026-04-12 04:16 1.1M
20260412T00Z_MSC_GDPS_WindSpeed_IsbL-0500_LatLon0.15_PT021H.grib2 2026-04-12 04:16 1.1M
20260412T00Z_MSC_GDPS_WindSpeed_IsbL-0550_LatLon0.15_PT021H.grib2 2026-04-12 04:16 1.1M
20260412T00Z_MSC_GDPS_WindSpeed_IsbL-0600_LatLon0.15_PT021H.grib2 2026-04-12 04:16 1.1M
20260412T00Z_MSC_GDPS_WindSpeed_IsbL-0650_LatLon0.15_PT021H.grib2 2026-04-12 04:16 1.2M
20260412T00Z_MSC_GDPS_WindSpeed_IsbL-0700_LatLon0.15_PT021H.grib2 2026-04-12 04:16 1.5M
20260412T00Z_MSC_GDPS_WindSpeed_IsbL-0750_LatLon0.15_PT021H.grib2 2026-04-12 04:16 1.5M
20260412T00Z_MSC_GDPS_WindSpeed_IsbL-0800_LatLon0.15_PT021H.grib2 2026-04-12 04:16 1.6M
20260412T00Z_MSC_GDPS_WindSpeed_IsbL-0850_LatLon0.15_PT021H.grib2 2026-04-12 04:16 1.7M
20260412T00Z_MSC_GDPS_WindSpeed_IsbL-0875_LatLon0.15_PT021H.grib2 2026-04-12 04:16 1.8M
20260412T00Z_MSC_GDPS_WindSpeed_IsbL-0900_LatLon0.15_PT021H.grib2 2026-04-12 04:16 1.8M
20260412T00Z_MSC_GDPS_WindSpeed_IsbL-0925_LatLon0.15_PT021H.grib2 2026-04-12 04:16 1.8M
20260412T00Z_MSC_GDPS_WindSpeed_IsbL-0950_LatLon0.15_PT021H.grib2 2026-04-12 04:16 1.9M
20260412T00Z_MSC_GDPS_WindSpeed_IsbL-0970_LatLon0.15_PT021H.grib2 2026-04-12 04:16 1.9M
20260412T00Z_MSC_GDPS_WindSpeed_IsbL-0985_LatLon0.15_PT021H.grib2 2026-04-12 04:16 1.8M
20260412T00Z_MSC_GDPS_WindSpeed_IsbL-1000_LatLon0.15_PT021H.grib2 2026-04-12 04:16 1.8M
20260412T00Z_MSC_GDPS_WindSpeed_IsbL-1015_LatLon0.15_PT021H.grib2 2026-04-12 04:16 1.8M
20260412T00Z_MSC_GDPS_WindU_AGL-10m_LatLon0.15_PT021H.grib2 2026-04-12 04:16 1.3M
20260412T00Z_MSC_GDPS_WindU_AGL-120m_LatLon0.15_PT021H.grib2 2026-04-12 04:16 1.0M
20260412T00Z_MSC_GDPS_WindU_AGL-40m_LatLon0.15_PT021H.grib2 2026-04-12 04:16 972K
20260412T00Z_MSC_GDPS_WindU_AGL-80m_LatLon0.15_PT021H.grib2 2026-04-12 04:16 1.0M
20260412T00Z_MSC_GDPS_WindU_IsbL-0001_LatLon0.15_PT021H.grib2 2026-04-12 04:16 635K
20260412T00Z_MSC_GDPS_WindU_IsbL-0005_LatLon0.15_PT021H.grib2 2026-04-12 04:16 693K
20260412T00Z_MSC_GDPS_WindU_IsbL-0010_LatLon0.15_PT021H.grib2 2026-04-12 04:16 708K
20260412T00Z_MSC_GDPS_WindU_IsbL-0020_LatLon0.15_PT021H.grib2 2026-04-12 04:16 672K
20260412T00Z_MSC_GDPS_WindU_IsbL-0030_LatLon0.15_PT021H.grib2 2026-04-12 04:16 742K
20260412T00Z_MSC_GDPS_WindU_IsbL-0050_LatLon0.15_PT021H.grib2 2026-04-12 04:16 712K
20260412T00Z_MSC_GDPS_WindU_IsbL-0100_LatLon0.15_PT021H.grib2 2026-04-12 04:16 933K
20260412T00Z_MSC_GDPS_WindU_IsbL-0150_LatLon0.15_PT021H.grib2 2026-04-12 04:16 1.0M
20260412T00Z_MSC_GDPS_WindU_IsbL-0175_LatLon0.15_PT021H.grib2 2026-04-12 04:16 817K
20260412T00Z_MSC_GDPS_WindU_IsbL-0200_LatLon0.15_PT021H.grib2 2026-04-12 04:16 848K
20260412T00Z_MSC_GDPS_WindU_IsbL-0225_LatLon0.15_PT021H.grib2 2026-04-12 04:16 857K
20260412T00Z_MSC_GDPS_WindU_IsbL-0250_LatLon0.15_PT021H.grib2 2026-04-12 04:16 858K
20260412T00Z_MSC_GDPS_WindU_IsbL-0275_LatLon0.15_PT021H.grib2 2026-04-12 04:16 884K
20260412T00Z_MSC_GDPS_WindU_IsbL-0300_LatLon0.15_PT021H.grib2 2026-04-12 04:16 936K
20260412T00Z_MSC_GDPS_WindU_IsbL-0350_LatLon0.15_PT021H.grib2 2026-04-12 04:16 894K
20260412T00Z_MSC_GDPS_WindU_IsbL-0400_LatLon0.15_PT021H.grib2 2026-04-12 04:16 895K
20260412T00Z_MSC_GDPS_WindU_IsbL-0450_LatLon0.15_PT021H.grib2 2026-04-12 04:16 1.1M
20260412T00Z_MSC_GDPS_WindU_IsbL-0500_LatLon0.15_PT021H.grib2 2026-04-12 04:16 1.1M
20260412T00Z_MSC_GDPS_WindU_IsbL-0550_LatLon0.15_PT021H.grib2 2026-04-12 04:16 1.1M
20260412T00Z_MSC_GDPS_WindU_IsbL-0600_LatLon0.15_PT021H.grib2 2026-04-12 04:16 1.1M
20260412T00Z_MSC_GDPS_WindU_IsbL-0650_LatLon0.15_PT021H.grib2 2026-04-12 04:16 1.2M
20260412T00Z_MSC_GDPS_WindU_IsbL-0700_LatLon0.15_PT021H.grib2 2026-04-12 04:16 1.2M
20260412T00Z_MSC_GDPS_WindU_IsbL-0750_LatLon0.15_PT021H.grib2 2026-04-12 04:16 1.3M
20260412T00Z_MSC_GDPS_WindU_IsbL-0800_LatLon0.15_PT021H.grib2 2026-04-12 04:16 1.3M
20260412T00Z_MSC_GDPS_WindU_IsbL-0850_LatLon0.15_PT021H.grib2 2026-04-12 04:16 1.4M
20260412T00Z_MSC_GDPS_WindU_IsbL-0875_LatLon0.15_PT021H.grib2 2026-04-12 04:16 1.4M
20260412T00Z_MSC_GDPS_WindU_IsbL-0900_LatLon0.15_PT021H.grib2 2026-04-12 04:16 1.5M
20260412T00Z_MSC_GDPS_WindU_IsbL-0925_LatLon0.15_PT021H.grib2 2026-04-12 04:16 1.5M
20260412T00Z_MSC_GDPS_WindU_IsbL-0950_LatLon0.15_PT021H.grib2 2026-04-12 04:16 1.4M
20260412T00Z_MSC_GDPS_WindU_IsbL-0970_LatLon0.15_PT021H.grib2 2026-04-12 04:16 1.4M
20260412T00Z_MSC_GDPS_WindU_IsbL-0985_LatLon0.15_PT021H.grib2 2026-04-12 04:16 1.4M
20260412T00Z_MSC_GDPS_WindU_IsbL-1000_LatLon0.15_PT021H.grib2 2026-04-12 04:16 1.4M
20260412T00Z_MSC_GDPS_WindU_IsbL-1015_LatLon0.15_PT021H.grib2 2026-04-12 04:16 1.3M
20260412T00Z_MSC_GDPS_WindV_AGL-10m_LatLon0.15_PT021H.grib2 2026-04-12 04:16 1.3M
20260412T00Z_MSC_GDPS_WindV_AGL-120m_LatLon0.15_PT021H.grib2 2026-04-12 04:16 1.0M
20260412T00Z_MSC_GDPS_WindV_AGL-40m_LatLon0.15_PT021H.grib2 2026-04-12 04:16 971K
20260412T00Z_MSC_GDPS_WindV_AGL-80m_LatLon0.15_PT021H.grib2 2026-04-12 04:16 1.0M
20260412T00Z_MSC_GDPS_WindV_IsbL-0001_LatLon0.15_PT021H.grib2 2026-04-12 04:16 546K
20260412T00Z_MSC_GDPS_WindV_IsbL-0005_LatLon0.15_PT021H.grib2 2026-04-12 04:16 780K
20260412T00Z_MSC_GDPS_WindV_IsbL-0010_LatLon0.15_PT021H.grib2 2026-04-12 04:16 885K
20260412T00Z_MSC_GDPS_WindV_IsbL-0020_LatLon0.15_PT021H.grib2 2026-04-12 04:16 949K
20260412T00Z_MSC_GDPS_WindV_IsbL-0030_LatLon0.15_PT021H.grib2 2026-04-12 04:16 941K
20260412T00Z_MSC_GDPS_WindV_IsbL-0050_LatLon0.15_PT021H.grib2 2026-04-12 04:16 917K
20260412T00Z_MSC_GDPS_WindV_IsbL-0100_LatLon0.15_PT021H.grib2 2026-04-12 04:16 864K
20260412T00Z_MSC_GDPS_WindV_IsbL-0150_LatLon0.15_PT021H.grib2 2026-04-12 04:16 1.0M
20260412T00Z_MSC_GDPS_WindV_IsbL-0175_LatLon0.15_PT021H.grib2 2026-04-12 04:16 1.0M
20260412T00Z_MSC_GDPS_WindV_IsbL-0200_LatLon0.15_PT021H.grib2 2026-04-12 04:16 847K
20260412T00Z_MSC_GDPS_WindV_IsbL-0225_LatLon0.15_PT021H.grib2 2026-04-12 04:16 856K
20260412T00Z_MSC_GDPS_WindV_IsbL-0250_LatLon0.15_PT021H.grib2 2026-04-12 04:16 855K
20260412T00Z_MSC_GDPS_WindV_IsbL-0275_LatLon0.15_PT021H.grib2 2026-04-12 04:16 937K
20260412T00Z_MSC_GDPS_WindV_IsbL-0300_LatLon0.15_PT021H.grib2 2026-04-12 04:16 928K
20260412T00Z_MSC_GDPS_WindV_IsbL-0350_LatLon0.15_PT021H.grib2 2026-04-12 04:16 887K
20260412T00Z_MSC_GDPS_WindV_IsbL-0400_LatLon0.15_PT021H.grib2 2026-04-12 04:16 888K
20260412T00Z_MSC_GDPS_WindV_IsbL-0450_LatLon0.15_PT021H.grib2 2026-04-12 04:16 888K
20260412T00Z_MSC_GDPS_WindV_IsbL-0500_LatLon0.15_PT021H.grib2 2026-04-12 04:16 1.1M
20260412T00Z_MSC_GDPS_WindV_IsbL-0550_LatLon0.15_PT021H.grib2 2026-04-12 04:16 1.1M
20260412T00Z_MSC_GDPS_WindV_IsbL-0600_LatLon0.15_PT021H.grib2 2026-04-12 04:16 1.1M
20260412T00Z_MSC_GDPS_WindV_IsbL-0650_LatLon0.15_PT021H.grib2 2026-04-12 04:16 1.2M
20260412T00Z_MSC_GDPS_WindV_IsbL-0700_LatLon0.15_PT021H.grib2 2026-04-12 04:16 1.2M
20260412T00Z_MSC_GDPS_WindV_IsbL-0750_LatLon0.15_PT021H.grib2 2026-04-12 04:16 1.3M
20260412T00Z_MSC_GDPS_WindV_IsbL-0800_LatLon0.15_PT021H.grib2 2026-04-12 04:16 1.3M
20260412T00Z_MSC_GDPS_WindV_IsbL-0850_LatLon0.15_PT021H.grib2 2026-04-12 04:16 1.4M
20260412T00Z_MSC_GDPS_WindV_IsbL-0875_LatLon0.15_PT021H.grib2 2026-04-12 04:16 1.4M
20260412T00Z_MSC_GDPS_WindV_IsbL-0900_LatLon0.15_PT021H.grib2 2026-04-12 04:16 1.4M
20260412T00Z_MSC_GDPS_WindV_IsbL-0925_LatLon0.15_PT021H.grib2 2026-04-12 04:16 1.4M
20260412T00Z_MSC_GDPS_WindV_IsbL-0950_LatLon0.15_PT021H.grib2 2026-04-12 04:16 1.4M
20260412T00Z_MSC_GDPS_WindV_IsbL-0970_LatLon0.15_PT021H.grib2 2026-04-12 04:16 1.4M
20260412T00Z_MSC_GDPS_WindV_IsbL-0985_LatLon0.15_PT021H.grib2 2026-04-12 04:16 1.4M
20260412T00Z_MSC_GDPS_WindV_IsbL-1000_LatLon0.15_PT021H.grib2 2026-04-12 04:16 1.4M
20260412T00Z_MSC_GDPS_WindV_IsbL-1015_LatLon0.15_PT021H.grib2 2026-04-12 04:16 1.3M